DLH1278 EDDF-LGAV

Flight info

Callsign DLH1278
Flight time 2h 7m
Altitude 37000
Route CINDY2D CINDY Z74 LAMPU DCT NOMBO Y161 MAH/N0438F390 L173 OTT M867 RADIZ DCT NEMEK DCT GLOMY DCT INLOT DCT PINDO UL607 XORKI
Aircraft A20N/M-SDE2E3FGHIRWXY/LB1

Departure

Time 2026-05-08 05:17
Airport Frankfurt Main Airport (EDDF)

Arrival

Time 2026-05-08 07:24
Airport Athens Eleftherios Venizelos International Airport (LGAV)
Time Latitude Longitude Altitude Speed Heading
2026-05-08 04:36 50.04784 8.56772 363 ft 0 kts 118°
2026-05-08 05:01 50.04791 8.56744 361 ft 4 kts 97°
2026-05-08 05:01 50.04799 8.56709 358 ft 3 kts 141°
2026-05-08 05:02 50.04811 8.56703 362 ft 0 kts 213°
2026-05-08 05:04 50.04809 8.56701 363 ft 2 kts 213°
2026-05-08 05:05 50.04788 8.56680 359 ft 5 kts 211°
2026-05-08 05:05 50.04743 8.56634 365 ft 10 kts 222°
2026-05-08 05:05 50.04697 8.56543 360 ft 11 kts 238°
2026-05-08 05:05 50.04663 8.56425 364 ft 13 kts 251°
2026-05-08 05:06 50.04630 8.56283 358 ft 15 kts 250°
2026-05-08 05:06 50.04590 8.56112 360 ft 18 kts 249°
2026-05-08 05:06 50.04535 8.55965 359 ft 17 kts 207°
2026-05-08 05:06 50.04423 8.55910 358 ft 16 kts 189°
2026-05-08 05:07 50.04345 8.55929 359 ft 13 kts 162°
2026-05-08 05:07 50.04265 8.55956 351 ft 11 kts 192°
2026-05-08 05:07 50.04180 8.55924 348 ft 15 kts 166°
2026-05-08 05:07 50.04106 8.55965 349 ft 8 kts 163°
2026-05-08 05:08 50.04051 8.55944 356 ft 9 kts 225°
2026-05-08 05:08 50.04026 8.55860 354 ft 9 kts 249°
2026-05-08 05:08 50.04002 8.55757 355 ft 12 kts 250°
2026-05-08 05:08 50.03971 8.55627 355 ft 13 kts 250°
2026-05-08 05:09 50.03939 8.55490 362 ft 13 kts 249°
2026-05-08 05:09 50.03903 8.55341 364 ft 16 kts 249°
2026-05-08 05:09 50.03861 8.55162 361 ft 18 kts 249°
2026-05-08 05:09 50.03813 8.54959 359 ft 22 kts 249°
2026-05-08 05:10 50.03759 8.54736 369 ft 22 kts 249°
2026-05-08 05:10 50.03717 8.54566 368 ft 9 kts 250°
2026-05-08 05:10 50.03695 8.54471 368 ft 10 kts 250°
2026-05-08 05:11 50.03670 8.54366 370 ft 11 kts 249°
2026-05-08 05:11 50.03637 8.54229 369 ft 16 kts 250°
2026-05-08 05:11 50.03597 8.54058 371 ft 18 kts 250°
2026-05-08 05:11 50.03551 8.53866 367 ft 22 kts 249°
2026-05-08 05:12 50.03494 8.53628 368 ft 24 kts 250°
2026-05-08 05:12 50.03443 8.53415 369 ft 4 kts 249°
2026-05-08 05:12 50.03434 8.53380 374 ft 5 kts 245°
2026-05-08 05:12 50.03413 8.53340 370 ft 5 kts 219°
2026-05-08 05:13 50.03381 8.53328 371 ft 5 kts 175°
2026-05-08 05:13 50.03356 8.53346 373 ft 3 kts 146°
2026-05-08 05:13 50.03342 8.53369 374 ft 1 kts 129°
2026-05-08 05:15 50.03341 8.53371 374 ft 2 kts 129°
2026-05-08 05:15 50.03300 8.53459 376 ft 12 kts 124°
2026-05-08 05:15 50.03294 8.53597 373 ft 6 kts 71°
2026-05-08 05:16 50.03300 8.53625 373 ft 8 kts 70°
2026-05-08 05:16 50.03400 8.54036 372 ft 74 kts 69°
2026-05-08 05:16 50.03647 8.55074 362 ft 128 kts 70°
2026-05-08 05:16 50.04013 8.56568 437 ft 158 kts 65°
2026-05-08 05:17 50.04401 8.58129 1046 ft 155 kts 68°
2026-05-08 05:17 50.04783 8.59721 1587 ft 159 kts 70°
2026-05-08 05:17 50.05153 8.61363 2086 ft 166 kts 71°
2026-05-08 05:17 50.05527 8.63137 2517 ft 179 kts 72°
2026-05-08 05:18 50.05906 8.65053 3004 ft 192 kts 73°
2026-05-08 05:18 50.06288 8.67135 3508 ft 211 kts 74°
2026-05-08 05:18 50.06692 8.69442 4090 ft 231 kts 75°
2026-05-08 05:18 50.07108 8.71905 4916 ft 241 kts 77°
2026-05-08 05:19 50.07123 8.74447 6092 ft 235 kts 103°
2026-05-08 05:19 50.06407 8.76747 6977 ft 241 kts 132°
2026-05-08 05:19 50.05040 8.78262 7829 ft 245 kts 161°
2026-05-08 05:19 50.03364 8.78586 8738 ft 245 kts 189°
2026-05-08 05:20 50.01784 8.77641 9692 ft 245 kts 217°
2026-05-08 05:20 50.00433 8.75922 10447 ft 255 kts 216°
2026-05-08 05:20 49.98854 8.74644 11318 ft 261 kts 202°
2026-05-08 05:20 49.97076 8.73709 11861 ft 280 kts 198°
2026-05-08 05:21 49.95130 8.72819 12207 ft 304 kts 195°
2026-05-08 05:21 49.92987 8.72044 12540 ft 327 kts 193°
2026-05-08 05:21 49.90685 8.71292 12982 ft 344 kts 193°
2026-05-08 05:21 49.88289 8.70978 13820 ft 350 kts 176°
2026-05-08 05:22 49.85948 8.71918 14569 ft 357 kts 156°
2026-05-08 05:22 49.83896 8.74119 15265 ft 365 kts 135°
2026-05-08 05:22 49.82423 8.77339 15987 ft 372 kts 116°
2026-05-08 05:22 49.81550 8.81152 16699 ft 377 kts 107°
2026-05-08 05:23 49.80836 8.85093 17404 ft 382 kts 106°
2026-05-08 05:23 49.80125 8.89093 18111 ft 387 kts 106°
2026-05-08 05:23 49.79388 8.93085 18750 ft 392 kts 107°
2026-05-08 05:23 49.78609 8.97140 19392 ft 395 kts 107°
2026-05-08 05:24 49.77807 9.01225 20031 ft 399 kts 108°
2026-05-08 05:24 49.76987 9.05347 20657 ft 402 kts 108°
2026-05-08 05:24 49.76165 9.09510 21252 ft 407 kts 106°
2026-05-08 05:24 49.75468 9.13782 21821 ft 411 kts 106°
2026-05-08 05:25 49.74471 9.17928 22042 ft 411 kts 117°
2026-05-08 05:25 49.72998 9.21705 22098 ft 409 kts 128°
2026-05-08 05:25 49.71159 9.25048 22088 ft 408 kts 133°
2026-05-08 05:25 49.69275 9.28335 22079 ft 408 kts 133°
2026-05-08 05:26 49.67404 9.31625 22099 ft 408 kts 133°
2026-05-08 05:26 49.65556 9.34884 22093 ft 408 kts 133°
2026-05-08 05:26 49.64294 9.37110 22095 ft 408 kts 133°
2026-05-08 05:26 49.61635 9.41181 22082 ft 406 kts 142°
2026-05-08 05:27 49.59358 9.43743 22095 ft 404 kts 150°
2026-05-08 05:27 49.56935 9.45951 22080 ft 404 kts 152°
2026-05-08 05:27 49.55293 9.47436 22085 ft 405 kts 152°
2026-05-08 05:27 49.52898 9.49616 22084 ft 405 kts 152°
2026-05-08 05:28 49.50471 9.51830 22087 ft 405 kts 152°
2026-05-08 05:28 49.48046 9.54044 22078 ft 405 kts 152°
2026-05-08 05:28 49.45623 9.56253 22078 ft 405 kts 152°
2026-05-08 05:28 49.43205 9.58454 22076 ft 405 kts 152°
2026-05-08 05:29 49.40769 9.60668 22072 ft 405 kts 152°
2026-05-08 05:29 49.38347 9.62866 22074 ft 405 kts 152°
2026-05-08 05:29 49.35905 9.65088 22289 ft 409 kts 150°
2026-05-08 05:29 49.33579 9.67632 22982 ft 412 kts 142°
2026-05-08 05:30 49.31490 9.70592 23585 ft 417 kts 137°
2026-05-08 05:30 49.29440 9.73756 24088 ft 421 kts 137°
2026-05-08 05:30 49.27365 9.76943 24595 ft 424 kts 137°
2026-05-08 05:30 49.25273 9.80142 25110 ft 427 kts 137°
2026-05-08 05:31 49.23158 9.83364 25591 ft 430 kts 137°
2026-05-08 05:31 49.21027 9.86606 26070 ft 433 kts 137°
2026-05-08 05:31 49.18881 9.89865 26529 ft 436 kts 137°
2026-05-08 05:31 49.16716 9.93149 26980 ft 439 kts 137°
2026-05-08 05:32 49.14541 9.96444 27410 ft 442 kts 137°
2026-05-08 05:32 49.12343 9.99770 27832 ft 445 kts 137°
2026-05-08 05:32 49.10132 10.03111 28244 ft 448 kts 137°
2026-05-08 05:32 49.07937 10.06425 28620 ft 451 kts 138°
2026-05-08 05:33 49.05695 10.09801 29017 ft 454 kts 138°
2026-05-08 05:33 49.03399 10.13121 29393 ft 456 kts 140°
2026-05-08 05:33 49.01058 10.16406 29756 ft 458 kts 140°
2026-05-08 05:33 48.98689 10.19713 30075 ft 462 kts 140°
2026-05-08 05:34 48.96312 10.23040 30407 ft 465 kts 140°
2026-05-08 05:34 48.93926 10.26391 30763 ft 467 kts 140°
2026-05-08 05:34 48.91542 10.29750 31080 ft 470 kts 140°
2026-05-08 05:34 48.89137 10.33143 31431 ft 471 kts 140°
2026-05-08 05:35 48.86740 10.36522 31840 ft 471 kts 140°
2026-05-08 05:35 48.84368 10.39861 32264 ft 470 kts 140°
2026-05-08 05:35 48.82052 10.43265 32684 ft 470 kts 136°
2026-05-08 05:35 48.79782 10.46923 33136 ft 469 kts 136°
2026-05-08 05:36 48.77544 10.50519 33513 ft 468 kts 136°
2026-05-08 05:36 48.75306 10.54104 33853 ft 469 kts 137°
2026-05-08 05:36 48.73058 10.57697 34191 ft 469 kts 137°
2026-05-08 05:36 48.70818 10.61270 34516 ft 468 kts 137°
2026-05-08 05:37 48.68569 10.64850 34818 ft 467 kts 137°
2026-05-08 05:37 48.66355 10.68372 35110 ft 467 kts 137°
2026-05-08 05:37 48.64115 10.71929 35402 ft 466 kts 137°
2026-05-08 05:37 48.61878 10.75477 35685 ft 466 kts 137°
2026-05-08 05:38 48.59638 10.79025 35962 ft 466 kts 137°
2026-05-08 05:38 48.57406 10.82564 36226 ft 465 kts 136°
2026-05-08 05:38 48.55186 10.86115 36558 ft 463 kts 136°
2026-05-08 05:38 48.52981 10.89649 36784 ft 464 kts 136°
2026-05-08 05:39 48.50768 10.93190 36988 ft 464 kts 136°
2026-05-08 05:39 48.48557 10.96719 37108 ft 464 kts 136°
2026-05-08 05:39 48.46316 11.00242 37113 ft 463 kts 137°
2026-05-08 05:40 48.41842 11.07194 37097 ft 462 kts 137°
2026-05-08 05:40 48.37360 11.14148 37101 ft 462 kts 137°
2026-05-08 05:41 48.32881 11.21089 37099 ft 462 kts 137°
2026-05-08 05:41 48.28574 11.28210 37077 ft 466 kts 128°
2026-05-08 05:42 48.24639 11.35925 37071 ft 464 kts 138°
2026-05-08 05:42 48.20028 11.42685 37081 ft 464 kts 139°
2026-05-08 05:43 48.15437 11.49488 37071 ft 462 kts 138°
2026-05-08 05:43 48.10910 11.56327 37073 ft 462 kts 138°
2026-05-08 05:44 48.06371 11.63195 37069 ft 464 kts 138°
2026-05-08 05:44 48.01841 11.70034 37079 ft 462 kts 138°
2026-05-08 05:45 47.97307 11.76853 37081 ft 463 kts 138°
2026-05-08 05:45 47.92789 11.83622 37083 ft 463 kts 138°
2026-05-08 05:46 47.88234 11.90430 37085 ft 463 kts 138°
2026-05-08 05:46 47.83672 11.97228 37078 ft 464 kts 138°
2026-05-08 05:47 47.79113 12.04006 37085 ft 463 kts 138°
2026-05-08 05:47 47.74544 12.10780 37084 ft 463 kts 139°
2026-05-08 05:48 47.69975 12.17536 37087 ft 463 kts 139°
2026-05-08 05:48 47.65423 12.24249 37089 ft 464 kts 139°
2026-05-08 05:49 47.60842 12.30987 37091 ft 463 kts 139°
2026-05-08 05:49 47.56255 12.37715 37082 ft 463 kts 139°
2026-05-08 05:50 47.51681 12.44412 37074 ft 462 kts 139°
2026-05-08 05:50 47.47107 12.51087 37075 ft 461 kts 139°
2026-05-08 05:51 47.42563 12.57701 37058 ft 461 kts 139°
2026-05-08 05:51 47.37990 12.64343 37065 ft 461 kts 139°
2026-05-08 05:52 47.33417 12.70966 37060 ft 460 kts 139°
2026-05-08 05:52 47.28842 12.77575 37054 ft 460 kts 140°
2026-05-08 05:53 47.24294 12.84128 37058 ft 460 kts 140°
2026-05-08 05:53 47.19718 12.90705 37050 ft 460 kts 140°
2026-05-08 05:54 47.15130 12.97282 37047 ft 459 kts 140°
2026-05-08 05:54 47.10545 13.03837 37049 ft 460 kts 140°
2026-05-08 05:55 47.05949 13.10394 37060 ft 460 kts 140°
2026-05-08 05:55 47.01384 13.16890 37057 ft 460 kts 140°
2026-05-08 05:56 46.96778 13.23426 37065 ft 462 kts 140°
2026-05-08 05:56 46.92169 13.29952 37070 ft 463 kts 140°
2026-05-08 05:57 46.87481 13.36572 37093 ft 465 kts 140°
2026-05-08 05:57 46.82810 13.43149 37081 ft 465 kts 140°
2026-05-08 05:58 46.78234 13.49582 37084 ft 463 kts 141°
2026-05-08 05:58 46.73579 13.56103 37083 ft 468 kts 141°
2026-05-08 05:59 46.68825 13.62742 37090 ft 476 kts 141°
2026-05-08 05:59 46.64074 13.69369 37086 ft 475 kts 141°
2026-05-08 06:00 46.59292 13.76023 37090 ft 475 kts 141°
2026-05-08 06:00 46.54505 13.82663 37081 ft 475 kts 141°
2026-05-08 06:01 46.49724 13.89278 37096 ft 475 kts 141°
2026-05-08 06:01 46.44947 13.95868 37101 ft 476 kts 141°
2026-05-08 06:02 46.40136 14.02489 37108 ft 477 kts 141°
2026-05-08 06:02 46.35325 14.09097 37114 ft 477 kts 141°
2026-05-08 06:03 46.30492 14.15716 37102 ft 477 kts 141°
2026-05-08 06:03 46.25672 14.22300 37106 ft 476 kts 141°
2026-05-08 06:04 46.20850 14.28869 37114 ft 476 kts 141°
2026-05-08 06:04 46.16027 14.35423 37106 ft 476 kts 141°
2026-05-08 06:05 46.11234 14.41922 37111 ft 475 kts 141°
2026-05-08 06:05 46.06407 14.48448 37092 ft 475 kts 142°
2026-05-08 06:06 46.01566 14.54977 37097 ft 475 kts 142°
2026-05-08 06:06 45.96728 14.61486 37088 ft 476 kts 142°
2026-05-08 06:07 45.91916 14.67944 37100 ft 475 kts 142°
2026-05-08 06:07 45.87076 14.74422 37079 ft 475 kts 142°
2026-05-08 06:08 45.82259 14.80855 37090 ft 475 kts 142°
2026-05-08 06:08 45.77415 14.87308 37088 ft 475 kts 142°
2026-05-08 06:09 45.72565 14.93752 37081 ft 476 kts 142°
2026-05-08 06:09 45.67701 15.00199 37093 ft 476 kts 142°
2026-05-08 06:10 45.62829 15.06642 37087 ft 475 kts 142°
2026-05-08 06:10 45.57993 15.13020 37084 ft 475 kts 142°
2026-05-08 06:11 45.53137 15.19408 37090 ft 474 kts 142°
2026-05-08 06:11 45.48281 15.25780 37090 ft 474 kts 142°
2026-05-08 06:12 45.43417 15.32146 37091 ft 474 kts 142°
2026-05-08 06:12 45.39377 15.37424 37089 ft 474 kts 142°
2026-05-08 06:13 45.34511 15.43766 37082 ft 474 kts 142°
2026-05-08 06:13 45.29648 15.50089 37098 ft 472 kts 142°
2026-05-08 06:14 45.24790 15.56390 37091 ft 472 kts 143°
2026-05-08 06:14 45.19973 15.62622 37079 ft 471 kts 142°
2026-05-08 06:15 45.15119 15.68886 37077 ft 471 kts 142°
2026-05-08 06:15 45.10258 15.75147 37075 ft 471 kts 143°
2026-05-08 06:16 45.05440 15.81335 37074 ft 470 kts 142°
2026-05-08 06:16 45.00587 15.87553 37064 ft 470 kts 142°
2026-05-08 06:17 44.93302 15.96861 37077 ft 470 kts 142°
2026-05-08 06:17 44.88452 16.03040 37077 ft 470 kts 143°
2026-05-08 06:18 44.83592 16.09217 37076 ft 470 kts 143°
2026-05-08 06:18 44.78767 16.15335 37073 ft 468 kts 143°
2026-05-08 06:19 44.73916 16.21471 37057 ft 468 kts 143°
2026-05-08 06:19 44.69062 16.27596 37068 ft 469 kts 143°
2026-05-08 06:20 44.64190 16.33730 37057 ft 470 kts 143°
2026-05-08 06:20 44.59311 16.39858 37073 ft 470 kts 143°
2026-05-08 06:21 44.54474 16.45921 37063 ft 469 kts 143°
2026-05-08 06:21 44.49607 16.52005 37066 ft 469 kts 143°
2026-05-08 06:22 44.44699 16.58123 37061 ft 476 kts 143°
2026-05-08 06:22 44.39718 16.64319 37059 ft 482 kts 143°
2026-05-08 06:23 44.34675 16.70580 37060 ft 486 kts 143°
2026-05-08 06:23 44.29608 16.76857 37059 ft 487 kts 143°
2026-05-08 06:24 44.24581 16.83072 37060 ft 476 kts 143°
2026-05-08 06:24 44.22145 16.86086 37060 ft 462 kts 143°
2026-05-08 06:24 44.19738 16.89052 37061 ft 463 kts 143°
2026-05-08 06:25 44.14866 16.95030 37052 ft 467 kts 143°
2026-05-08 06:25 44.09982 17.01020 37050 ft 467 kts 143°
2026-05-08 06:26 44.05142 17.06946 37062 ft 464 kts 143°
2026-05-08 06:26 44.00288 17.12874 37058 ft 464 kts 143°
2026-05-08 06:27 43.95466 17.18750 37054 ft 464 kts 143°
2026-05-08 06:27 43.90642 17.24615 37060 ft 464 kts 143°
2026-05-08 06:28 43.85753 17.30545 37065 ft 464 kts 143°
2026-05-08 06:28 43.80927 17.36387 37068 ft 464 kts 143°
2026-05-08 06:29 43.76067 17.42258 37074 ft 463 kts 143°
2026-05-08 06:29 43.71214 17.48112 37056 ft 463 kts 144°
2026-05-08 06:30 43.63510 17.57382 37065 ft 463 kts 144°
2026-05-08 06:30 43.53748 17.68922 37060 ft 461 kts 145°
2026-05-08 06:31 43.43980 17.80391 37059 ft 461 kts 144°
2026-05-08 06:31 43.34159 17.91829 37051 ft 462 kts 145°
2026-05-08 06:32 43.24317 18.03227 37059 ft 463 kts 145°
2026-05-08 06:32 43.14466 18.14590 37064 ft 462 kts 145°
2026-05-08 06:33 43.04635 18.25877 37069 ft 461 kts 145°
2026-05-08 06:33 42.94896 18.37010 37037 ft 457 kts 145°
2026-05-08 06:34 42.85129 18.48131 37041 ft 457 kts 145°
2026-05-08 06:34 42.75351 18.59212 37034 ft 457 kts 145°
2026-05-08 06:35 42.65558 18.70264 37006 ft 456 kts 145°
2026-05-08 06:35 42.55760 18.81278 37009 ft 457 kts 145°
2026-05-08 06:36 42.45936 18.92274 37024 ft 458 kts 145°
2026-05-08 06:36 42.36164 19.03162 37014 ft 458 kts 145°
2026-05-08 06:37 42.26331 19.14078 37006 ft 459 kts 146°
2026-05-08 06:37 42.16418 19.25034 37025 ft 460 kts 146°
2026-05-08 06:38 42.06489 19.35963 37021 ft 461 kts 146°
2026-05-08 06:38 41.96532 19.46866 37005 ft 460 kts 147°
2026-05-08 06:39 41.86367 19.57267 37017 ft 458 kts 148°
2026-05-08 06:39 41.76247 19.67638 37011 ft 457 kts 147°
2026-05-08 06:40 41.66201 19.77903 37003 ft 457 kts 147°
2026-05-08 06:40 41.56068 19.88214 36999 ft 457 kts 148°
2026-05-08 06:41 41.45916 19.98501 37019 ft 458 kts 148°
2026-05-08 06:41 41.35753 20.08759 37028 ft 458 kts 148°
2026-05-08 06:42 41.25583 20.18984 37022 ft 458 kts 148°
2026-05-08 06:42 41.15472 20.29111 37033 ft 460 kts 148°
2026-05-08 06:43 41.05213 20.39346 37066 ft 462 kts 149°
2026-05-08 06:43 40.94904 20.49586 37069 ft 462 kts 149°
2026-05-08 06:44 40.84577 20.59799 37075 ft 464 kts 149°
2026-05-08 06:44 40.74226 20.70002 37095 ft 465 kts 149°
2026-05-08 06:45 40.63853 20.80184 37108 ft 465 kts 149°
2026-05-08 06:45 40.56103 20.87764 37120 ft 467 kts 150°
2026-05-08 06:46 40.50891 20.92853 36814 ft 460 kts 150°
2026-05-08 06:46 40.48347 20.95346 36519 ft 453 kts 149°
2026-05-08 06:46 40.45942 20.98001 35819 ft 457 kts 145°
2026-05-08 06:47 40.43569 21.00752 35126 ft 457 kts 145°
2026-05-08 06:47 40.41271 21.03423 34415 ft 459 kts 145°
2026-05-08 06:47 40.38772 21.06317 33570 ft 461 kts 145°
2026-05-08 06:47 40.37749 21.07498 33240 ft 461 kts 144°
2026-05-08 06:48 40.36868 21.08513 32947 ft 460 kts 144°
2026-05-08 06:48 40.34143 21.11648 32003 ft 461 kts 144°
2026-05-08 06:48 40.31782 21.14358 31160 ft 461 kts 144°
2026-05-08 06:48 40.29398 21.17091 30507 ft 459 kts 143°
2026-05-08 06:49 40.27016 21.19825 29973 ft 451 kts 143°
2026-05-08 06:49 40.24670 21.22518 29376 ft 445 kts 143°
2026-05-08 06:49 40.22392 21.25131 28810 ft 439 kts 143°
2026-05-08 06:49 40.20074 21.27785 28225 ft 433 kts 143°
2026-05-08 06:50 40.17815 21.30368 27662 ft 428 kts 144°
2026-05-08 06:50 40.15619 21.32877 27114 ft 424 kts 144°
2026-05-08 06:50 40.13377 21.35432 26550 ft 420 kts 144°
2026-05-08 06:50 40.11209 21.37902 26004 ft 417 kts 144°
2026-05-08 06:51 40.08673 21.40789 25324 ft 415 kts 144°
2026-05-08 06:51 40.04358 21.45696 24241 ft 409 kts 144°
2026-05-08 06:51 40.00065 21.50569 23076 ft 403 kts 144°
2026-05-08 06:51 39.95886 21.55310 22220 ft 401 kts 144°
2026-05-08 06:52 39.91545 21.60201 22126 ft 412 kts 143°
2026-05-08 06:52 39.87207 21.65103 22129 ft 413 kts 143°
2026-05-08 06:52 39.82867 21.70001 22136 ft 412 kts 143°
2026-05-08 06:52 39.78543 21.74869 22135 ft 412 kts 143°
2026-05-08 06:53 39.74203 21.79743 22130 ft 413 kts 144°
2026-05-08 06:53 39.69802 21.84680 22128 ft 417 kts 144°
2026-05-08 06:53 39.65422 21.89585 21589 ft 415 kts 144°
2026-05-08 06:53 39.60997 21.94524 19855 ft 425 kts 144°
2026-05-08 06:54 39.56648 21.99384 19089 ft 404 kts 144°
2026-05-08 06:54 39.52466 22.04047 18953 ft 398 kts 144°
2026-05-08 06:54 39.48279 22.08693 18820 ft 396 kts 144°
2026-05-08 06:54 39.44469 22.12921 18606 ft 396 kts 144°
2026-05-08 06:55 39.40268 22.17572 18297 ft 398 kts 144°
2026-05-08 06:55 39.36080 22.22210 18015 ft 392 kts 144°
2026-05-08 06:55 39.31929 22.26796 17734 ft 391 kts 144°
2026-05-08 06:55 39.27843 22.31301 17457 ft 390 kts 144°
2026-05-08 06:56 39.23744 22.35814 17178 ft 387 kts 144°
2026-05-08 06:56 39.19698 22.40263 16904 ft 386 kts 144°
2026-05-08 06:56 39.15620 22.44738 16635 ft 384 kts 144°
2026-05-08 06:56 39.11516 22.49228 16352 ft 391 kts 144°
2026-05-08 06:57 39.07393 22.53745 16068 ft 388 kts 144°
2026-05-08 06:57 39.03280 22.58239 15768 ft 385 kts 144°
2026-05-08 06:57 38.99199 22.62688 15507 ft 384 kts 144°
2026-05-08 06:57 38.95128 22.67121 15235 ft 382 kts 144°
2026-05-08 06:58 38.92441 22.70044 15051 ft 381 kts 144°
2026-05-08 06:58 38.88453 22.74375 14772 ft 379 kts 144°
2026-05-08 06:58 38.84431 22.78737 14501 ft 378 kts 144°
2026-05-08 06:58 38.80375 22.83125 14239 ft 382 kts 144°
2026-05-08 06:59 38.76337 22.87494 13972 ft 379 kts 144°
2026-05-08 06:59 38.72332 22.91815 13695 ft 376 kts 145°
2026-05-08 06:59 38.68328 22.96131 13417 ft 372 kts 145°
2026-05-08 06:59 38.64421 23.00335 13159 ft 372 kts 145°
2026-05-08 07:00 38.60402 23.04649 12889 ft 369 kts 145°
2026-05-08 07:00 38.56532 23.08802 12632 ft 365 kts 145°
2026-05-08 07:00 38.52651 23.12965 12373 ft 363 kts 144°
2026-05-08 07:00 38.48800 23.17087 12113 ft 360 kts 145°
2026-05-08 07:01 38.44975 23.21175 11853 ft 357 kts 145°
2026-05-08 07:01 38.41175 23.25228 11593 ft 354 kts 145°
2026-05-08 07:01 38.37400 23.29252 11346 ft 352 kts 145°
2026-05-08 07:01 38.33663 23.33227 11093 ft 348 kts 145°
2026-05-08 07:02 38.29950 23.37169 10843 ft 346 kts 145°
2026-05-08 07:02 38.26274 23.41069 10598 ft 343 kts 145°
2026-05-08 07:02 38.22700 23.44860 10418 ft 322 kts 144°
2026-05-08 07:02 38.19414 23.48341 10133 ft 297 kts 145°
2026-05-08 07:03 38.16373 23.51654 9801 ft 290 kts 140°
2026-05-08 07:03 38.13541 23.55360 9688 ft 291 kts 139°
2026-05-08 07:03 38.10720 23.59057 9546 ft 291 kts 139°
2026-05-08 07:03 38.07905 23.62723 9328 ft 288 kts 139°
2026-05-08 07:04 38.05099 23.66367 9123 ft 289 kts 139°
2026-05-08 07:04 38.02301 23.70000 8748 ft 285 kts 139°
2026-05-08 07:04 37.99537 23.73584 8550 ft 286 kts 139°
2026-05-08 07:04 37.96786 23.77142 8356 ft 286 kts 138°
2026-05-08 07:05 37.94959 23.79505 8216 ft 285 kts 138°
2026-05-08 07:05 37.93577 23.81308 8120 ft 285 kts 137°
2026-05-08 07:05 37.92194 23.83107 8015 ft 284 kts 138°
2026-05-08 07:05 37.90810 23.84890 7921 ft 284 kts 138°
2026-05-08 07:06 37.89422 23.86676 7808 ft 284 kts 138°
2026-05-08 07:06 37.88066 23.88421 7706 ft 283 kts 138°
2026-05-08 07:06 37.86698 23.90183 7608 ft 283 kts 138°
2026-05-08 07:06 37.85318 23.91959 7507 ft 282 kts 138°
2026-05-08 07:07 37.83944 23.93729 7411 ft 281 kts 138°
2026-05-08 07:07 37.82575 23.95492 7312 ft 279 kts 138°
2026-05-08 07:07 37.81214 23.97240 7205 ft 280 kts 138°
2026-05-08 07:07 37.79852 23.98991 7103 ft 280 kts 138°
2026-05-08 07:08 37.78482 24.00751 7001 ft 279 kts 138°
2026-05-08 07:08 37.77134 24.02487 6901 ft 279 kts 138°
2026-05-08 07:08 37.75769 24.04240 6792 ft 280 kts 138°
2026-05-08 07:08 37.74410 24.05985 6698 ft 278 kts 138°
2026-05-08 07:09 37.73053 24.07725 6590 ft 277 kts 138°
2026-05-08 07:09 37.71706 24.09450 6492 ft 277 kts 138°
2026-05-08 07:09 37.70345 24.11193 6393 ft 276 kts 138°
2026-05-08 07:09 37.69006 24.12906 6287 ft 275 kts 138°
2026-05-08 07:10 37.67659 24.14629 6190 ft 274 kts 138°
2026-05-08 07:10 37.66328 24.16331 6087 ft 274 kts 138°
2026-05-08 07:10 37.64979 24.18055 5988 ft 274 kts 138°
2026-05-08 07:10 37.63643 24.19761 5887 ft 273 kts 138°
2026-05-08 07:11 37.62420 24.21573 5794 ft 276 kts 123°
2026-05-08 07:11 37.61864 24.23922 5685 ft 283 kts 95°
2026-05-08 07:11 37.62199 24.26376 5590 ft 289 kts 68°
2026-05-08 07:11 37.63348 24.28410 5492 ft 291 kts 41°
2026-05-08 07:12 37.65097 24.29633 5392 ft 291 kts 13°
2026-05-08 07:12 37.67104 24.29780 5319 ft 287 kts 348°
2026-05-08 07:12 37.69041 24.29224 5209 ft 284 kts 342°
2026-05-08 07:12 37.70962 24.28620 5110 ft 285 kts 344°
2026-05-08 07:13 37.72915 24.28154 5013 ft 286 kts 348°
2026-05-08 07:13 37.74893 24.27819 4910 ft 287 kts 351°
2026-05-08 07:13 37.76880 24.27565 4808 ft 286 kts 352°
2026-05-08 07:13 37.78857 24.27348 4699 ft 286 kts 352°
2026-05-08 07:14 37.80837 24.27142 4591 ft 286 kts 352°
2026-05-08 07:14 37.82815 24.26937 4499 ft 282 kts 352°
2026-05-08 07:14 37.84722 24.26739 4368 ft 274 kts 352°
2026-05-08 07:14 37.86605 24.26540 4200 ft 269 kts 352°
2026-05-08 07:15 37.88501 24.26335 4157 ft 275 kts 352°
2026-05-08 07:15 37.90404 24.26134 4113 ft 275 kts 352°
2026-05-08 07:15 37.92310 24.25929 4019 ft 275 kts 352°
2026-05-08 07:15 37.94213 24.25720 3950 ft 276 kts 352°
2026-05-08 07:16 37.96139 24.25512 3868 ft 272 kts 352°
2026-05-08 07:16 37.97972 24.25317 3788 ft 261 kts 352°
2026-05-08 07:16 37.99743 24.25018 3704 ft 250 kts 341°
2026-05-08 07:16 38.01309 24.24283 3533 ft 243 kts 330°
2026-05-08 07:17 38.02831 24.23407 3443 ft 247 kts 330°
2026-05-08 07:17 38.04402 24.22524 3364 ft 246 kts 332°
2026-05-08 07:17 38.05940 24.21590 3269 ft 241 kts 323°
2026-05-08 07:17 38.07243 24.20344 3183 ft 230 kts 314°
2026-05-08 07:18 38.08451 24.19050 3068 ft 224 kts 314°
2026-05-08 07:18 38.09528 24.17635 3015 ft 222 kts 293°
2026-05-08 07:18 38.09927 24.15850 2976 ft 199 kts 267°
2026-05-08 07:18 38.09999 24.14170 2971 ft 186 kts 268°
2026-05-08 07:19 38.10084 24.12520 2984 ft 187 kts 264°
2026-05-08 07:19 38.09752 24.11030 2973 ft 174 kts 232°
2026-05-08 07:19 38.08870 24.10035 2784 ft 169 kts 214°
2026-05-08 07:19 38.07917 24.09162 2483 ft 169 kts 215°
2026-05-08 07:20 38.06950 24.08256 2300 ft 174 kts 216°
2026-05-08 07:20 38.05995 24.07346 2098 ft 178 kts 215°
2026-05-08 07:20 38.05008 24.06405 1883 ft 177 kts 216°
2026-05-08 07:20 38.04035 24.05468 1734 ft 179 kts 216°
2026-05-08 07:21 38.03039 24.04500 1744 ft 180 kts 215°
2026-05-08 07:21 38.02045 24.03566 1819 ft 173 kts 215°
2026-05-08 07:21 38.01114 24.02706 1782 ft 158 kts 216°
2026-05-08 07:21 38.00309 24.01894 1617 ft 139 kts 218°
2026-05-08 07:22 37.99588 24.01170 1422 ft 126 kts 216°
2026-05-08 07:22 37.98907 24.00553 1260 ft 116 kts 214°
2026-05-08 07:22 37.98218 23.99928 1140 ft 123 kts 216°
2026-05-08 07:22 37.97549 23.99262 977 ft 123 kts 216°
2026-05-08 07:23 37.96871 23.98626 750 ft 124 kts 216°
2026-05-08 07:23 37.96195 23.97987 606 ft 121 kts 217°
2026-05-08 07:23 37.95538 23.97362 427 ft 117 kts 219°
2026-05-08 07:23 37.94886 23.96733 299 ft 118 kts 218°
2026-05-08 07:24 37.94342 23.96221 271 ft 44 kts 217°
2026-05-08 07:24 37.94149 23.96041 277 ft 36 kts 216°
2026-05-08 07:24 37.94003 23.95897 278 ft 18 kts 220°
2026-05-08 07:24 37.93994 23.95785 278 ft 8 kts 308°
2026-05-08 07:25 37.93998 23.95779 276 ft 0 kts 309°
2026-05-08 07:27 37.94003 23.95770 279 ft 4 kts 307°
2026-05-08 07:27 37.94011 23.95756 276 ft 1 kts 305°
2026-05-08 07:27 37.94025 23.95732 279 ft 6 kts 304°
2026-05-08 07:27 37.94045 23.95672 277 ft 9 kts 258°
2026-05-08 07:28 37.94000 23.95612 277 ft 11 kts 215°
2026-05-08 07:28 37.93929 23.95546 278 ft 14 kts 217°
2026-05-08 07:28 37.93855 23.95469 281 ft 12 kts 237°
2026-05-08 07:28 37.93877 23.95371 279 ft 13 kts 304°
2026-05-08 07:29 37.93873 23.95282 280 ft 11 kts 244°
2026-05-08 07:29 37.93839 23.95192 280 ft 10 kts 249°
2026-05-08 07:29 37.93851 23.95129 285 ft 6 kts 309°
2026-05-08 07:29 37.93865 23.95108 281 ft 0 kts 311°
2026-05-08 07:30 37.93868 23.95104 281 ft 0 kts 311°
2026-05-08 07:30 37.93869 23.95103 281 ft 0 kts 311°